Skip Page Navigation
NASA JPL Caltech
NASA Logo - Jet Propulsion Laboratory + View the NASA Portal
+ Near-Earth Object (NEO) Program
Search JPL
JPL Home Earth Solar System Stars & Galaxies Technology
JPL Solar System Dynamics
BODIES ORBITS EPHEMERIDES TOOLS PHYSICAL DATA DISCOVERY FAQ SITE MAP
JPL Small-Body Database Browser
Search: [ help ]  
236 Honoria
Classification: Main-belt Asteroid          SPK-ID: 2000236
Ephemeris | Orbit Diagram | Orbital Elements | Physical Parameters | Discovery Circumstances ]

[ show orbit diagram ]
Orbital Elements at Epoch 2457000.5 (2014-Dec-09.0) TDB
Reference: JPL 13 (heliocentric ecliptic J2000)
 Element Value Uncertainty (1-sigma)   Units 
e .1897703889698266 3.9264e-08  
a 2.798836628208578 9.1298e-09 AU
q 2.267700312610438 1.0977e-07 AU
i 7.69161748284012 5.09e-06 deg
node 185.8618930883403 3.9131e-05 deg
peri 174.9169367060892 4.1289e-05 deg
M 168.1129211964888 1.328e-05 deg
tp 2456201.837406532797
(2012-Oct-01.33740653)
6.2293e-05 JED
period 1710.270285007683
4.68
8.3684e-06
2.291e-08
d
yr
n .2104930449624123 1.0299e-09 deg/d
Q 3.329972943806718 1.0862e-08 AU
  Orbit Determination Parameters
   # obs. used (total)      1313  
   data-arc span      47502 days (130.05 yr)  
   first obs. used      1884-04-28  
   last obs. used      2014-05-19  
   planetary ephem.      DE431  
   SB-pert. ephem.      SB431-BIG16  
   condition code      0  
   fit RMS      .58668  
   data source      ORB  
   producer      Otto Matic  
   solution date      2014-Jun-16 13:10:05  

Additional Information
 Earth MOID = 1.26505 AU 
 T_jup = 3.286 
[ show covariance matrix ]

Ephemeris | Orbit Diagram | Orbital Elements | Physical Parameters | Discovery Circumstances ]

Physical Parameter Table
Parameter Symbol Value Units Sigma Reference Notes
absolute magnitude H 8.18 mag n/a IRAS-A-FPA-3-RDR-IMPS-V6.0 IRAS observations used: 21
magnitude slope G -0.02   n/a PDS3 (MPC 17258) Fit
diameter diameter 86.20 km 3.7 IRAS-A-FPA-3-RDR-IMPS-V6.0 IRAS observations used: 21
rotation period rot_per 12.333 h n/a Asteroid Lightcurve DataBase (Rev. 2014-Mar-01) Result based on less than full coverage, so that the period may be wrong by 30 percent or so.
Published Reference List:
[Lagerkvist, C.-I.; Hahn, G.; Magnusson, P.; Rickman, H. (1987) Astron. Astrophys. Suppl. Ser. 70, 21-32.]
[Harris, A.W.; Young, J.W. (1989) Icarus 81, 314-364.]
geometric albedo albedo 0.1271   0.012 IRAS-A-FPA-3-RDR-IMPS-V6.0 IRAS observations used: 21
B-V BV .852 mag .016 EAR-A-5-DDR-UBV-MEAN-VALUES-V1.1 #obs=5; phase (min.=6.27, mean=12.05, max.=20.17) deg.
U-B UB .444 mag .024 EAR-A-5-DDR-UBV-MEAN-VALUES-V1.1 #obs=6; phase (min.=5.06, mean=10.88, max.=20.17) deg.
Tholen spectral type spec_T S   n/a EAR-A-5-DDR-TAXONOMY-V4.0 used 7 color indices; used ground-based radiometric albedo
SMASSII spectral type spec_B L   n/a EAR-A-5-DDR-TAXONOMY-V4.0 based on a high-resolution spectrum by Xu et al. (1995) or Bus and Binzel (2002)

236 Honoria          Discovered 1884-Apr-26 by Palisa, J. at Vienna
Reference: DISCOVERY.DBLast Updated: 2003-08-29

Alternate Designations
 1930 KK = 1953 GJ1 = A904 PA 
Ephemeris | Orbit Diagram | Orbital Elements | Physical Parameters | Discovery Circumstances ]
ABOUT SSD CREDITS/AWARDS PRIVACY/COPYRIGHT GLOSSARY LINKS
FirstGov 2014-Dec-20 23:42 UT
(server date/time)  
NASA Home Page
Site Manager:   Donald K. Yeomans
Webmaster  Alan B. Chamberlin